Tracking 29892 objects as of 21-Nov-2024
HD Live streaming from Space Station
objects crossing your sky now

CZ-6A DEB

Track CZ-6A DEB now!
10-day predictions


NORAD ID: 54491
Int'l Code: 2022-151HT
Perigee: 796.3 km
Apogee: 955.9 km
Inclination: 98.9 °
Period: 102.3 minutes
Semi major axis: 7247 km
RCS: Unknown
Launch date: November 11, 2022
Source: People's Republic of China (PRC)
Launch site: Taiyaun Space Center, China (TSC)

Note: This is SATELLITE DEBRIS
Your satellite tracking list
Your tracking list is empty




NASA's NSSDC Master Catalog

Two Line Element Set (TLE):
1 54491U 22151HT  24325.47220725  .00000422  00000-0  26253-3 0  9998
2 54491  98.9137 330.2228 0110082 104.1496 257.1934 14.07209952103418
Source of the keplerian elements: AFSPC